Fort Worth NAS, TX

12:57 AM CDT on March 23, 2017 (GMT -0500)
Fort Worth Naval Air Station Jrb

Weather History for KNFW - September, 2013

Change the Weather History Date:

Tuesday, September 24, 2013

  Actual Average Record
Temperature  
Mean Temperature 81 °F -  
Max Temperature 95 °F 83 °F 98 °F (2011)
Min Temperature 69 °F 63 °F 57 °F (2001)
Cooling Degree Days 16    
Growing Degree Days 31 (Base 50)    
Moisture  
Dew Point 55 °F    
Average Humidity 46    
Maximum Humidity 71    
Minimum Humidity 18    
Precipitation  
Precipitation 0.00 in - - ()
Sea Level Pressure  
Sea Level Pressure 29.89 in    
Wind  
Wind Speed 3 mph (NW)    
Max Wind Speed 10 mph    
Max Gust Speed -    
Visibility 10 miles    
Events      
Averages and records for this station are not official NWS values.
T = Trace of Precipitation, MM = Missing Value Source: NWS Daily Summary

Daily Weather History Graph

Daily Weather History Graph

Search for Another Location

Airport or City:

Trip Planner

Search our weather history database for the weather conditions in past years. The results will help you decide how hot, cold, wet, or windy it might be!

Date:

Astronomy

Sep. 24, 2013 Rise Set
Actual Time 7:19 AM CDT 7:23 PM CDT
Civil Twilight 6:54 AM CDT 7:47 PM CDT
Nautical Twilight 6:26 AM CDT 8:16 PM CDT
Astronomical Twilight 5:57 AM CDT 8:45 PM CDT
Moon 10:58 PM CDT (9/24) 12:18 PM CDT (9/24)
Length of Visible Light 12h 53m
Length of Day
12h 03m
Waning Gibbous, 73% of the Moon is Illuminated
Sep 24
Waning Gibbous
Sep 26
Last Quarter
Oct 4
New
Oct 11
First Quarter
Oct 18
Full

Hourly Weather History & Observations

Time (CDT) Temp. Heat Index Dew Point Humidity Pressure Visibility Wind Dir Wind Speed Gust Speed Precip Events Conditions
12:52 AM 75.0 °F - 54.0 °F 48% 29.84 in 10.0 mi Calm Calm - N/A   Clear
1:52 AM 73.9 °F - 55.0 °F 52% 29.86 in 10.0 mi Calm Calm - N/A   Clear
2:52 AM 70.0 °F - 60.1 °F 71% 29.86 in 10.0 mi NW 3.5 mph - N/A   Clear
3:52 AM 70.0 °F - 55.9 °F 61% 29.87 in 10.0 mi Calm Calm - N/A   Scattered Clouds
4:52 AM 69.1 °F - 57.9 °F 68% 29.88 in 10.0 mi NNW 3.5 mph - N/A   Mostly Cloudy
5:52 AM 69.1 °F - 57.0 °F 65% 29.88 in 10.0 mi WNW 3.5 mph - N/A   Mostly Cloudy
6:52 AM 70.0 °F - 60.1 °F 71% 29.90 in 10.0 mi NNW 5.8 mph - N/A   Mostly Cloudy
7:52 AM 71.1 °F - 60.1 °F 68% 29.91 in 10.0 mi WNW 3.5 mph - N/A   Partly Cloudy
8:52 AM 73.9 °F - 61.0 °F 64% 29.92 in 10.0 mi Calm Calm - N/A   Partly Cloudy
9:52 AM 79.0 °F - 62.1 °F 56% 29.94 in 10.0 mi Calm Calm - N/A   Partly Cloudy
10:52 AM 82.9 °F 83.7 °F 62.1 °F 49% 29.95 in 10.0 mi WNW 3.5 mph - N/A   Partly Cloudy
11:52 AM 87.1 °F 86.7 °F 60.1 °F 40% 29.94 in 10.0 mi WNW 3.5 mph - N/A   Clear
12:52 PM 91.0 °F 88.7 °F 54.0 °F 28% 29.93 in 10.0 mi NNW 4.6 mph - N/A   Partly Cloudy
1:52 PM 91.9 °F 90.6 °F 57.0 °F 31% 29.90 in 10.0 mi NNW 6.9 mph - N/A   Partly Cloudy
2:52 PM 93.0 °F 90.6 °F 53.1 °F 26% 29.88 in 10.0 mi NW 5.8 mph - N/A   Partly Cloudy
3:52 PM 93.9 °F - 48.9 °F 21% 29.87 in 10.0 mi NW 5.8 mph - N/A   Partly Cloudy
4:52 PM 93.9 °F - 48.9 °F 21% 29.86 in 10.0 mi NNW 9.2 mph - N/A   Partly Cloudy
5:52 PM 93.9 °F - 45.0 °F 18% 29.86 in 10.0 mi NNW 10.4 mph - N/A   Partly Cloudy
6:52 PM 90.0 °F - 48.0 °F 24% 29.86 in 10.0 mi NNW 6.9 mph - N/A   Clear
7:52 PM 84.0 °F 82.9 °F 55.0 °F 37% 29.86 in 10.0 mi Calm Calm - N/A   Clear
8:52 PM 81.0 °F 80.4 °F 53.1 °F 38% 29.87 in 10.0 mi NW 5.8 mph - N/A   Clear
9:52 PM 77.0 °F - 50.0 °F 39% 29.88 in 10.0 mi WNW 5.8 mph - N/A   Clear
10:52 PM 75.0 °F - 54.0 °F 48% 29.89 in 10.0 mi NW 4.6 mph - N/A   Clear
11:52 PM 72.0 °F - 52.0 °F 49% 29.89 in 10.0 mi WNW 5.8 mph - N/A   Clear